STARLINK-32752 (62567 NORAD) Tracking and Keplerian Element Data

This shows tracking and keplerian element data for the satellite.

Feedback or suggestion? Click here.




ElementValue
Catalog62567
NameSTARLINK-32752
Epoch Orbit493
Epoch Day34.83335648
Epoch Year2025
RAAN29.568
Inclination43.0004
Eccentricity0.0001407
Argument of Perigee257.0443
Mean Anonmoly18.0275
Mean Motion15.47320262
Decay Rate-0.01500213
L11 62567U 25006P 25034.83335648 -.01500213 00000+0 -31694-1 0 9990
L22 62567 43.0004 29.5680 0001407 257.0443 18.0275 15.47320262 4937



Live tracking and technical data element details for STARLINK-32752 (NORAD 62567). STARLINK-32752 can be tracked NOW for your location showing map with azimuth and elevation plus other details from your city location.







IsCatalogInMostPopularTable: catalog: 62567, numindb: 25
Update: records affected: 1



GetName: 62567 STARLINK-32752

Hit Count: updated at: Mon, 19 May 2025 01:22:35 GMT